Location: Erp
(42.9417°N, 1.2009°E)
Time: 12:53:24
(UTC+00:00)

Cosmos 1959 Rocket - Pass Details

Date: 23 April 2026
Orbit: 946 x 997 km, 82.9° (Epoch: 12 May)

Event Time Altitude Azimuth Distance (km) Brightness Sun altitude
Rises 19:44:05 0° 195° (SSW) 3,698 7.4 -10.4°
Reaches altitude 10° 19:46:38 10° 198° (SSW) 2,750 6.8 -10.8°
Maximum altitude 19:52:54 66° 280° (W) 1,077 5.0 -11.8°
Drops below altitude 10° 19:59:10 10° 2° (N) 2,741 7.2 -12.8°
Sets 20:01:43 0° 6° (N) 3,685 7.9 -13.2°
